GW1497 Weather Reports


time (UTC)temp
C
wind
direction
speed
KPH
gust
KPH
rain 1hr
cm
rain 24hr
cm
rain mn
cm
humidity
%
barometer
mb
20260508072732 4 34 4.8 4.8 0.00 0.00 0.00 85 1016.5
20260508072115 4 36 3.2 4.8 0.00 0.00 0.00 83 1016.2
20260508071537 4 31 3.2 3.2 0.00 0.00 0.00 83 1016.5
20260508070950 4 42 3.2 3.2 0.00 0.00 0.00 81 1016.5
20260508070338 4 51 3.2 4.8 0.00 0.00 0.00 81 1016.9
20260508065738 4 19 3.2 3.2 0.00 0.00 0.00 81 1016.5
20260508065133 3 36 3.2 3.2 0.00 0.00 0.00 81 1016.5
20260508064520 4 4 0.0 1.6 0.00 0.00 0.00 82 1016.5
20260508063925 4 56 1.6 3.2 0.00 0.00 0.00 82 1016.5
20260508063318 4 125 0.0 1.6 0.00 0.00 0.00 81 1016.9
20260508062742 4 34 3.2 4.8 0.00 0.00 0.00 82 1016.9
20260508062146 5 11 1.6 3.2 0.00 0.00 0.00 80 1016.5
20260508061530 5 129 3.2 4.8 0.00 0.00 0.00 85 1016.5
20260508060909 5 122 0.0 0.0 0.00 0.00 0.00 80 1016.5
20260508060341 5 122 3.2 3.2 0.00 0.00 0.00 80 1016.5
20260508055751 5 123 0.0 0.0 0.00 0.00 0.00 78 1016.9
20260508055141 5 123 0.0 0.0 0.00 0.00 0.00 78 1016.5
20260508054544 5 99 0.0 0.0 0.00 0.00 0.00 74 1016.9
20260508052737 5 37 0.0 3.2 0.00 0.00 0.00 72 1016.9
20260508052132 5 15 3.2 3.2 0.00 0.00 0.00 71 1016.9
20260508051526 6 14 0.0 1.6 0.00 0.00 0.00 69 1016.9
20260508050945 6 101 0.0 3.2 0.00 0.00 0.00 69 1016.9
20260508050309 7 48 3.2 6.4 0.00 0.00 0.00 63 1016.9
20260508045724 6 41 0.0 1.6 0.00 0.00 0.00 70 1016.9
20260508045127 6 26 0.0 1.6 0.00 0.00 0.00 68 1016.9
20260508044542 6 46 3.2 3.2 0.00 0.00 0.00 67 1016.9
20260508043936 6 58 0.0 1.6 0.00 0.00 0.00 66 1016.9
20260508043347 6 45 0.0 1.6 0.00 0.00 0.00 65 1016.5
20260508042723 6 48 0.0 1.6 0.00 0.00 0.00 64 1016.9
20260508042141 7 16 0.0 1.6 0.00 0.00 0.00 61 1016.9
20260508041532 8 64 0.0 1.6 0.00 0.00 0.00 60 1016.9
20260508040318 8 138 0.0 3.2 0.00 0.00 0.00 60 1016.5
20260508035120 8 105 1.6 1.6 0.00 0.00 0.00 61 1016.5
20260508034526 8 138 0.0 1.6 0.00 0.00 0.00 60 1016.5
20260508033916 8 103 0.0 1.6 0.00 0.00 0.00 59 1016.5
20260508033321 8 309 0.0 0.0 0.00 0.00 0.00 58 1016.5
20260508032734 8 309 0.0 0.0 0.00 0.00 0.00 57 1016.5
20260508032146 9 309 0.0 0.0 0.00 0.00 0.00 57 1016.5
20260508031526 9 288 0.0 1.6 0.00 0.00 0.00 56 1016.5
20260508030931 9 275 0.0 0.0 0.00 0.00 0.00 56 1016.5
20260508030311 10 286 1.6 1.6 0.00 0.00 0.00 57 1016.5
20260508025719 10 297 0.0 3.2 0.00 0.00 0.00 55 1016.5
20260508025114 10 297 0.0 3.2 0.00 0.00 0.00 56 1016.5
20260508024525 10 287 1.6 3.2 0.00 0.00 0.00 55 1016.2
20260508023946 10 304 3.2 3.2 0.00 0.00 0.00 56 1016.5
20260508023341 10 292 3.2 3.2 0.00 0.00 0.00 56 1016.2
20260508022723 10 276 1.6 3.2 0.00 0.00 0.00 56 1016.2
20260508021515 10 287 3.2 3.2 0.00 0.00 0.00 55 1015.9
20260508020945 10 283 3.2 3.2 0.00 0.00 0.00 54 1015.9
20260508020349 10 301 3.2 4.8 0.00 0.00 0.00 55 1016.2
20260508015738 10 293 3.2 4.8 0.00 0.00 0.00 56 1016.2
20260508015145 10 289 4.8 4.8 0.00 0.00 0.00 54 1015.9
20260508014517 10 300 3.2 3.2 0.00 0.00 0.00 53 1016.2
20260508012725 11 276 3.2 4.8 0.00 0.00 0.00 51 1015.5
20260508011528 11 262 1.6 4.8 0.00 0.00 0.00 50 1015.5
20260508010935 11 275 3.2 4.8 0.00 0.00 0.00 49 1015.5
20260508010349 11 283 4.8 6.4 0.00 0.00 0.00 48 1015.2
20260508005736 11 277 3.2 4.8 0.00 0.00 0.00 47 1015.5
20260508003908 12 269 3.2 8.0 0.00 0.00 0.00 46 1015.2
20260508003340 12 279 6.4 6.4 0.00 0.00 0.00 44 1015.2
20260508002734 12 235 3.2 4.8 0.00 0.00 0.00 44 1015.2
20260508002110 12 264 3.2 6.4 0.00 0.00 0.00 43 1014.9
20260508001532 13 299 9.7 14.5 0.00 0.00 0.00 42 1014.9
20260508000949 12 275 6.4 9.7 0.00 0.00 0.00 42 1014.5
20260508000335 13 262 8.0 11.3 0.00 0.00 0.00 41 1014.5
20260507235747 13 301 9.7 16.1 0.00 0.00 0.00 40 1014.5
20260507235119 13 303 12.9 16.1 0.00 0.00 0.00 40 1014.5
20260507234551 13 313 4.8 9.7 0.00 0.00 0.00 40 1014.5
20260507233938 14 303 9.7 19.3 0.00 0.00 0.00 39 1014.5
20260507233347 14 299 11.3 14.5 0.00 0.00 0.00 40 1014.5
20260507231535 14 292 6.4 6.4 0.00 0.00 0.00 43 1014.2
20260507225744 15 256 4.8 9.7 0.00 0.00 0.00 38 1014.2
20260507225120 15 257 4.8 9.7 0.00 0.00 0.00 38 1013.8
20260507224527 15 248 4.8 12.9 0.00 0.00 0.00 36 1013.8
20260507223918 15 239 9.7 9.7 0.00 0.00 0.00 41 1013.8
20260507223338 15 256 9.7 9.7 0.00 0.00 0.00 38 1013.8
20260507222719 15 261 6.4 17.7 0.00 0.00 0.00 37 1013.8
20260507221516 15 262 8.0 16.1 0.00 0.00 0.00 36 1013.8
20260507220312 15 193 11.3 19.3 0.00 0.00 0.00 35 1013.8
20260507215738 15 258 9.7 19.3 0.00 0.00 0.00 37 1013.5
20260507215144 16 267 8.0 11.3 0.00 0.00 0.00 36 1013.5
20260507213944 16 260 4.8 9.7 0.00 0.00 0.00 38 1013.2
20260507212737 16 268 4.8 11.3 0.00 0.00 0.00 38 1013.2
20260507211532 16 278 12.9 14.5 0.00 0.00 0.00 40 1012.8
20260507210928 16 179 9.7 20.9 0.00 0.00 0.00 41 1012.8
20260507210344 16 270 6.4 12.9 0.00 0.00 0.00 36 1012.8
20260507204547 17 265 4.8 8.0 0.00 0.00 0.00 38 1012.8
20260507202737 17 238 1.6 8.0 0.00 0.00 0.00 38 1013.2
20260507202152 16 291 6.4 12.9 0.00 0.00 0.00 38 1012.8
20260507201538 16 267 3.2 16.1 0.00 0.00 0.00 42 1012.8
20260507200938 16 282 8.0 11.3 0.00 0.00 0.00 44 1013.2
20260507195752 15 286 6.4 9.7 0.00 0.00 0.00 43 1013.2
20260507195151 14 260 3.2 8.0 0.00 0.00 0.00 43 1013.5
20260507194514 15 284 4.8 9.7 0.00 0.00 0.00 46 1013.5
20260507193951 15 284 8.0 8.0 0.00 0.00 0.00 45 1013.8
20260507192732 15 251 3.2 9.7 0.00 0.00 0.00 45 1013.8
20260507192146 15 271 8.0 9.7 0.00 0.00 0.00 43 1013.8
20260507191535 15 278 8.0 9.7 0.00 0.00 0.00 43 1013.8
20260507190936 15 241 8.0 9.7 0.00 0.00 0.00 47 1013.8
20260507185724 16 280 4.8 11.3 0.00 0.00 0.00 45 1013.8
20260507185150 15 264 9.7 12.9 0.00 0.00 0.00 43 1013.8
20260507184549 16 318 3.2 14.5 0.00 0.00 0.00 43 1013.8
20260507183951 16 255 3.2 19.3 0.00 0.00 0.00 42 1013.8
20260507183308 16 210 12.9 22.5 0.00 0.00 0.00 44 1013.8
20260507182714 16 206 9.7 11.3 0.00 0.00 0.00 49 1013.8
20260507182150 15 283 3.2 6.4 0.00 0.00 0.00 45 1013.8
20260507181510 15 264 6.4 12.9 0.00 0.00 0.00 46 1013.8
20260507180928 15 297 11.3 14.5 0.00 0.00 0.00 46 1013.8
20260507180324 15 269 8.0 8.0 0.00 0.00 0.00 49 1014.2
20260507174520 13 292 9.7 9.7 0.00 0.00 0.00 52 1014.2
20260507173945 13 307 6.4 6.4 0.00 0.00 0.00 55 1014.2
20260507172732 14 270 9.7 11.3 0.00 0.00 0.00 52 1014.5
20260507172129 15 294 11.3 12.9 0.00 0.00 0.00 50 1014.5
20260507170911 15 73 8.0 9.7 0.00 0.00 0.00 45 1014.5
20260507170321 15 310 9.7 12.9 0.00 0.00 0.00 49 1014.5
20260507165750 15 237 9.7 9.7 0.00 0.00 0.00 48 1014.5
20260507165135 14 308 1.6 11.3 0.00 0.00 0.00 52 1014.5
20260507163923 14 185 16.1 19.3 0.00 0.00 0.00 51 1014.9
20260507162722 14 216 4.8 16.1 0.00 0.00 0.00 49 1014.9
20260507162152 15 195 11.3 14.5 0.00 0.00 0.00 49 1014.5
20260507161555 14 275 3.2 11.3 0.00 0.00 0.00 50 1014.9
20260507160923 13 299 8.0 9.7 0.00 0.00 0.00 51 1014.9
20260507160346 13 317 4.8 4.8 0.00 0.00 0.00 53 1014.9
20260507155731 14 295 11.3 12.9 0.00 0.00 0.00 52 1014.9
20260507155123 13 309 3.2 9.7 0.00 0.00 0.00 51 1015.2
20260507154519 12 273 4.8 9.7 0.00 0.00 0.00 50 1015.2
20260507153911 13 342 4.8 6.4 0.00 0.00 0.00 50 1015.2
20260507153315 12 300 8.0 8.0 0.00 0.00 0.00 54 1015.5
20260507152750 13 40 3.2 12.9 0.00 0.00 0.00 50 1015.5
20260507151534 12 266 3.2 8.0 0.00 0.00 0.00 55 1015.2
20260507150347 13 183 3.2 8.0 0.00 0.00 0.00 59 1015.2
20260507145715 12 305 0.0 4.8 0.00 0.00 0.00 57 1015.5
20260507145111 12 274 0.0 4.8 0.00 0.00 0.00 58 1015.5
20260507144515 13 2 6.4 9.7 0.00 0.00 0.00 57 1015.5
20260507143939 12 226 3.2 12.9 0.00 0.00 0.00 60 1015.9
20260507143320 13 311 6.4 8.0 0.00 0.00 0.00 56 1015.5
20260507142123 13 53 3.2 4.8 0.00 0.00 0.00 55 1015.5
20260507141517 13 328 3.2 3.2 0.00 0.00 0.00 58 1015.9
20260507140926 12 314 1.6 9.7 0.00 0.00 0.00 60 1015.9
20260507140342 12 242 3.2 6.4 0.00 0.00 0.00 59 1015.9
20260507135143 12 274 3.2 6.4 0.00 0.00 0.00 59 1016.2
20260507134519 12 15 3.2 6.4 0.00 0.00 0.00 62 1016.2
20260507133319 12 43 3.2 9.7 0.00 0.00 0.00 59 1016.2
20260507132743 12 45 4.8 4.8 0.00 0.00 0.00 63 1016.2
20260507132122 12 36 3.2 4.8 0.00 0.00 0.00 60 1016.5
20260507130911 11 169 1.6 3.2 0.00 0.00 0.00 72 1016.2
20260507130311 11 182 4.8 4.8 0.00 0.00 0.00 80 1016.2
20260507124550 10 153 3.2 8.0 0.00 0.00 0.00 82 1016.2
20260507123943 10 171 3.2 3.2 0.00 0.00 0.00 80 1016.2
20260507123343 10 162 1.6 3.2 0.00 0.00 0.00 81 1016.2
20260507122748 10 162 3.2 4.8 0.00 0.00 0.00 80 1016.2
20260507122127 10 297 0.0 0.0 0.00 0.00 0.00 84 1016.2
20260507120340 8 134 3.2 3.2 0.00 0.00 0.00 88 1016.2
20260507115712 8 105 3.2 3.2 0.00 0.00 0.00 92 1016.5
20260507115146 8 134 1.6 3.2 0.00 0.00 0.00 93 1016.5
20260507114527 7 123 0.0 3.2 0.00 0.00 0.00 95 1016.2
20260507113916 7 115 1.6 3.2 0.00 0.00 0.00 97 1016.2
20260507113326 7 96 0.0 3.2 0.00 0.00 0.00 98 1016.2
20260507112752 7 77 0.0 3.2 0.00 0.00 0.00 99 1016.2
20260507111513 6 124 0.0 3.2 0.00 0.00 0.00 99 1015.9
20260507110940 6 125 1.6 3.2 0.00 0.00 0.00 99 1015.9
20260507110320 6 117 0.0 0.0 0.00 0.00 0.00 99 1015.5
20260507105717 6 41 0.0 1.6 0.00 0.00 0.00 99 1015.5
20260507105143 6 106 3.2 3.2 0.00 0.00 0.00 98 1015.5
20260507104546 6 113 0.0 3.2 0.00 0.00 0.00 97 1015.5
20260507103320 6 138 0.0 1.6 0.00 0.00 0.00 96 1015.5
20260507102729 6 58 0.0 1.6 0.00 0.00 0.00 96 1015.5
20260507101525 6 123 0.0 3.2 0.00 0.00 0.00 94 1015.5
20260507100912 6 78 0.0 3.2 0.00 0.00 0.00 94 1015.2
20260507100332 6 68 0.0 1.6 0.00 0.00 0.00 95 1015.2
20260507095740 6 350 0.0 3.2 0.00 0.00 0.00 93 1015.2
20260507095110 6 122 1.6 3.2 0.00 0.00 0.00 93 1015.2
20260507093930 7 345 0.0 3.2 0.00 0.00 0.00 90 1015.2
20260507093344 7 90 1.6 3.2 0.00 0.00 0.00 87 1015.2
20260507092744 7 19 1.6 3.2 0.00 0.00 0.00 87 1015.2
20260507092130 7 124 0.0 1.6 0.00 0.00 0.00 86 1015.5
20260507091510 7 95 0.0 3.2 0.00 0.00 0.00 87 1015.2
20260507090939 7 121 1.6 3.2 0.00 0.00 0.00 87 1015.2
20260507090318 8 41 1.6 1.6 0.00 0.00 0.00 89 1014.9
20260507085715 7 331 1.6 3.2 0.00 0.00 0.00 88 1014.9
20260507085109 7 333 3.2 3.2 0.00 0.00 0.00 95 1014.9
20260507084541 7 342 1.6 3.2 0.00 0.00 0.00 95 1015.2
20260507083925 7 354 0.0 3.2 0.00 0.00 0.00 95 1015.2
20260507083327 7 9 3.2 4.8 0.00 0.00 0.00 94 1015.2
20260507082121 7 58 0.0 0.0 0.00 0.00 0.00 91 1015.5
20260507081530 8 123 1.6 3.2 0.00 0.00 0.00 91 1015.2
20260507080917 8 123 0.0 0.0 0.00 0.00 0.00 88 1015.2
20260507080337 8 305 0.0 3.2 0.00 0.00 0.00 86 1015.2
20260507075716 8 211 0.0 1.6 0.00 0.00 0.00 85 1015.2
20260507075135 8 109 0.0 1.6 0.00 0.00 0.00 86 1015.2
20260507074541 8 37 0.0 1.6 0.00 0.00 0.00 83 1015.2
20260507073952 8 19 1.6 1.6 0.00 0.00 0.00 83 1015.2
20260507073328 9 42 0.0 0.0 0.00 0.00 0.00 83 1015.2